Regional Weather Roundup
Issued by NWS

Home | Current Version | Previous Version | Graphics & Text | Print | Product List | Glossary On
Versions: 1 2 3 4 5 6 7 8 9 10 11 12 13 14 15 16 17 18 19 20 21 22 23 24 25 26 27 28 29 30 31 32 33 34 35 36 37 38 39 40 41 42 43 44 45 46 47 48 49 50
450
ASUS44 KJAN 230110
RWRMS

MISSISSIPPI HOURLY WEATHER ROUNDUP
NATIONAL WEATHER SERVICE JACKSON MS
800 PM CDT WED OCT 22 2014

NOTE: "FAIR: INDICATES FEW OR NO CLOUDS BELOW 12,000 FEET WITH NO
SIGNIFICANT WEATHER AND/OR OBSTRUCTIONS TO VISIBILITY.

MSZ001>002-007>008-010>013-018>021-025>028-034>036-230200-
NORTHWEST MISSISSIPPI

CITY           SKY/WX    TMP DP  RH WIND       PRES   REMARKS
CLARKSDALE     FAIR      55  46  71 NE6       30.17S
CLEVELAND      FAIR      57  48  71 NE6       30.15R
GREENWOOD      CLEAR     54  47  77 NE5       30.15R
GREENVILLE     CLEAR     56  44  64 NE3       30.14R
GRENADA          N/A    N/A N/A N/A MISG        N/A
OLIVE BRANCH   CLEAR     54  46  76 NE6       30.18S
OXFORD         FAIR      48  46  93 CALM      30.19R
TUNICA         CLEAR     54  46  76 NE5       30.18S
$$

MSZ003>006-009-014>017-022>024-029>033-037>039-230200-
NORTHEAST MISSISSIPPI

CITY           SKY/WX    TMP DP  RH WIND       PRES   REMARKS
COLUMBUS AFB   CLEAR     52  46  82 CALM      30.15R
CORINTH        FAIR      54  45  71 NW3       30.18R
GOLDN TRIANGLE CLEAR     55  43  62 N7        30.14S
STARKVILLE     FAIR      50  46  87 CALM      30.15R
TUPELO         CLEAR     55  45  68 N3        30.16R
$$

MSZ040-058-230200-
CENTRAL MISSISSIPPI

CITY           SKY/WX    TMP DP  RH WIND       PRES   REMARKS
JACKSON INTL   CLEAR     62  48  60 NE8       30.11S
JACKSON HAWKNS CLEAR     64  47  53 NE5       30.11S
MERIDIAN KEY   CLEAR     54  47  77 N5        30.12R
MERIDIAN NAS   CLEAR     59  45  59 N5        30.13R
RAYMOND        FAIR      57  54  88 NE3       30.11R
VICKSBURG      CLEAR     62  48  60 NE10      30.12R
$$

MSZ059>079-230200-
SOUTH MISSISSIPPI

CITY           SKY/WX    TMP DP  RH WIND       PRES   REMARKS
BROOKHAVEN     FAIR      61  52  72 N3        30.10S
COLUMBIA         N/A    N/A N/A N/A MISG        N/A
HATTIESBURG    CLEAR     64  50  60 N5        30.09R
MCCOMB         CLEAR     66  48  52 NE5       30.08R
NATCHEZ        CLEAR     63  52  67 N3        30.10R
PINE BELT      CLEAR     61  46  59 N7        30.11R
$$

MSZ080>082-230200-
COASTAL MISSISSIPPI

CITY           SKY/WX    TMP DP  RH WIND       PRES   REMARKS
BILOXI         CLEAR     68  53  58 NE7       30.06R
PASCAGOULA     CLEAR     59  50  72 N7        30.06R
GULFPORT       CLEAR     68  52  56 N5        30.05R
$$



USA.gov is the U.S. government's official web portal to all federal, state and local government web resources and services.